Regional Weather Roundup
Issued by NWS

Home | Current Version | Previous Version | Text Only | Print | Product List | Glossary Off
Versions: 1 2 3 4 5 6 7 8 9 10 11 12 13 14 15 16 17 18 19 20 21 22 23 24 25 26 27 28 29 30 31 32 33 34 35 36 37 38 39 40 41 42 43 44 45 46 47 48 49 50

000
ASUS43 KBIS 222320
RWRND

NORTH DAKOTA REGIONAL WEATHER ROUNDUP
NATIONAL WEATHER SERVICE BISMARCK ND
500 PM CST MON DEC 22 2014

NOTE: "FAIR" INDICATES FEW OR NO CLOUDS BELOW 12,000 FEET WITH NO
SIGNIFICANT WEATHER AND/OR OBSTRUCTIONS TO VISIBILITY.


NDZ001>003-009>011-017-230000-
NORTHWEST NORTH DAKOTA

CITY           SKY/WX    TMP DP  RH WIND       PRES   REMARKS
WILLISTON      CLOUDY    27  22  81 N14       29.74R WCI  16
MINOT          CLOUDY    28  25  88 NW14      29.67R FOG     WCI  17
MINOT AFB      CLOUDY    28  28 100 N13       29.68R WCI  18
$$

NDZ018>021-031>035-040>046-230000-
SOUTHWEST NORTH DAKOTA

CITY           SKY/WX    TMP DP  RH WIND       PRES   REMARKS
BISMARCK       CLOUDY    31  30  96 N14G22    29.60R
DICKINSON      LGT SNOW  25  21  85 NW20      29.64R FOG     WCI  11
GARRISON         N/A     28  26  92 N17       29.65R WCI  16
HETTINGER ARPT LGT SNOW  25  21  85 NW24G32   29.63R VSB 1   WCI   9
$$

NDZ004>008-012>016-024-026-027-054-230000-
NORTHEAST NORTH DAKOTA

CITY           SKY/WX    TMP DP  RH WIND       PRES   REMARKS
GRAND FORKS    LGT RAIN  36  36 100 E7        29.61R
GRND FRKS AFB  MIX PCPN  36  36 100 NE7       29.62R
DEVILS LAKE    CLOUDY    34  32  93 NE14      29.62R
$$

NDZ022-023-025-028>030-036>039-047>053-230000-
SOUTHEAST NORTH DAKOTA

CITY           SKY/WX    TMP DP  RH WIND       PRES   REMARKS
FARGO          CLOUDY    39  36  89 E9        29.56R
JAMESTOWN      LGT RAIN  33  33 100 NE10      29.53R VSB 1
$$




USA.gov is the U.S. government's official web portal to all federal, state and local government web resources and services.